Location: Franzen
(48.6167°N, 15.3833°E)
Time: 07:43:07
(UTC+00:00)

Transit 2A - Pass Details

Date: 04 August 2021
Orbit: 594 x 964 km, 66.7° (Epoch: 24 September)

Event Time Altitude Azimuth Distance (km) Brightness Sun altitude
Rises 05:13:58 0° 226° (SW) 2,847 8.5 14.3°
Reaches altitude 10° 05:16:11 10° 230° (SW) 1,970 7.7 14.7°
Maximum altitude 05:20:32 58° 310° (NW) 754 6.0 15.4°
Drops below altitude 10° 05:25:16 10° 30° (NNE) 2,144 9.0 16.2°
Sets 05:27:46 0° 34° (NE) 3,124 9.8 16.6°
